Tracking 27112 objects as of 27-Mar-2023
HD Live streaming from Space Station
objects crossing your sky now

COSMOS 1823 DEB

Track COSMOS 1823 DEB now!
10-day predictions


NORAD ID: 39833
Int'l Code: 1987-020FH
Perigee: 1,424.2 km
Apogee: 1,452.6 km
Inclination: 73.8 °
Period: 114.5 minutes
Semi major axis: 7809 km
RCS: 0.0132 m2 (small)
Launch date: February 20, 1987
Source: Commonwealth of Independent States (former USSR) (CIS)
Launch site: PLESETSK MISSILE AND SPACE COMPLEX (PKMTR)

Note: This is SATELLITE DEBRIS
Your satellite tracking list
Your tracking list is empty




NASA's NSSDC Master Catalog

Two Line Element Set (TLE):
1 39833U 87020FH  23085.19861529  .00000444  00000-0  27298-2 0  9994
2 39833  73.7761 276.6431 0018190 259.8494 100.0508 12.57988496404380
Source of the keplerian elements: AFSPC